Simultaneous Nadir Overpasses (SNOs) Predictions

Prediction of SNOs between LANDSAT-8 and TERRA Satellite Orbit:

Table of predicted SNOs for the next 14.0 days since TLE Epoch: 11/21/2023
Index Date (LANDSAT-8) Time (LANDSAT-8) Lat,Lon (LANDSAT-8) SZA (LANDSAT-8 ) Date (TERRA) Time (TERRA) Lat,Lon (TERRA) SZA (TERRA ) Distance(km) Time Diff (sec)
1 12/04/2023 15:38:28 81.67, 20.08 110.17 12/04/2023 15:39:41 81.66, 20.15 110.22 1.25 73
2 12/04/2023 16:27:55 -81.67,-172.41 69.85 12/04/2023 16:29:03 -81.67,-172.29 69.79 2.07 68
3 12/04/2023 17:17:21 81.66, -4.62 110.18 12/04/2023 17:18:25 81.67, -4.70 110.21 1.41 64
4 12/04/2023 18:06:47 -81.66, 163.30 69.79 12/04/2023 18:07:46 -81.66, 163.26 69.76 0.60 59
5 12/04/2023 18:56:14 81.66, -29.31 110.19 12/04/2023 18:57:08 81.66, -29.15 110.24 2.72 54
6 12/04/2023 19:45:40 -81.66, 138.60 69.77 12/04/2023 19:46:30 -81.66, 138.41 69.77 3.24 50
7 12/04/2023 20:35:06 81.65, -53.60 110.26 12/04/2023 20:35:51 81.65, -53.60 110.28 0.15 45
8 12/04/2023 21:24:33 -81.66, 113.91 69.76 12/04/2023 21:25:13 -81.65, 113.96 69.73 0.87 40
9 12/04/2023 22:13:59 81.65, -78.30 110.27 12/04/2023 22:14:35 81.66, -78.45 110.27 2.59 36
10 12/04/2023 23:03:25 -81.64, 89.62 69.70 12/04/2023 23:03:56 -81.64, 89.51 69.69 1.79 31
11 12/04/2023 23:52:52 81.65,-103.00 110.28 12/04/2023 23:53:18 81.65,-102.90 110.31 1.55 26
12 12/05/2023 00:42:18 -81.64, 64.92 69.69 12/05/2023 00:42:39 -81.64, 65.06 69.66 2.32 21
13 12/05/2023 01:31:44 81.64,-127.29 110.34 12/05/2023 01:32:01 81.64,-127.35 110.34 1.11 17
14 12/05/2023 02:21:11 -81.64, 40.22 69.68 12/05/2023 02:21:23 -81.64, 40.20 69.67 0.36 12
15 12/05/2023 03:10:37 81.64,-151.98 110.35 12/05/2023 03:10:44 81.63,-151.80 110.38 3.03 7



Historial Predications of SNOs between LANDSAT-8 and TERRA
